Home > Weather > Atascadero > Past weeks

Flag for USA Weather for the Past 2 Weeks in Atascadero, California, USA

Now
66 °F

Broken clouds.


Feels Like: 66 °F
Forecast: 52 / 64 °F
Wind: 10 mph from Northwest

Location: Paso Robles Municipal Airport

Current Time: May 6, 2016 at 12:45:32 PM

Latest Report: May 6, 2016 at 11:53 AM


Visibility: 10 mi

Pressure: 29.86 "Hg

Humidity: 54%

Dew Point: 49 °F

Location of AtascaderoLocation

Historic Weather in Atascadero — Graph

°F

Atascadero Temperature Yesterday

Maximum temperature yesterday: 68 °F (at 1:53 PM)
Minimum temperature yesterday: 54 °F (at 11:53 PM)
Average temperature yesterday: 60 °F

High & Low Weather Summary for the Past Weeks

 TemperatureHumidityPressure
High84 °F (May 2, 1:53 PM)100% (Apr 23, 4:53 AM)30.17 "Hg (Apr 23, 4:53 AM)
Low36 °F (Apr 26, 5:53 AM)9% (Apr 26, 4:53 PM)29.75 "Hg (Apr 30, 5:53 PM)
Average59 °F62%29.94 "Hg
* Reported Apr 21 11:53 AM — May 6 11:53 AM, Atascadero, Weather by CustomWeather, © 2016

Note: Actual official high and low records may vary slightly from our data, if they occured in-between our weather recording intervals... More about our weather records

Advertising

Atascadero Weather History for the Previous 24 Hours

Scroll right to see more
 ConditionsComfort  
Time TempWeatherWind HumidityBarometerVisibility
11:53 AM
Fri, May 6
66 °FBroken clouds.10 mph54%29.86 "Hg10 mi
10:53 AM66 °FPassing clouds.6 mph56%29.86 "Hg10 mi
9:53 AM61 °FPartly sunny.9 mph70%29.87 "Hg10 mi
8:53 AM57 °FMore clouds than sun.9 mph78%29.87 "Hg10 mi
7:53 AM55 °FMostly cloudy.No wind83%29.86 "Hg10 mi
6:53 AM53 °FMostly cloudy.No wind86%29.85 "Hg10 mi
5:53 AM52 °FLight rain. Mostly cloudy.No wind86%29.84 "Hg10 mi
4:53 AM52 °FMostly cloudy.No wind86%29.83 "Hg10 mi
3:53 AM51 °FMostly cloudy.No wind86%29.84 "Hg10 mi
2:53 AM49 °FClear.No wind90%29.83 "Hg10 mi
1:53 AM50 °FClear.3 mph89%29.83 "Hg10 mi
12:53 AM51 °FClear.6 mph86%29.85 "Hg10 mi
11:53 PM
Thu, May 5
54 °FClear.3 mph83%29.85 "Hg10 mi
10:53 PM55 °FPassing clouds.6 mph80%29.87 "Hg10 mi
9:53 PM57 °FPassing clouds.5 mph74%29.86 "Hg10 mi
8:53 PM58 °FPartly cloudy.7 mph72%29.85 "Hg10 mi
7:53 PM59 °FScattered clouds.8 mph67%29.85 "Hg10 mi
6:53 PM60 °FPassing clouds.10 mph65%29.84 "Hg10 mi
5:53 PM62 °FSunny.13 mph58%29.83 "Hg10 mi
4:53 PM64 °FPartly sunny.14 mph54%29.83 "Hg10 mi
3:53 PM65 °FPartly sunny.15 mph51%29.84 "Hg10 mi
2:53 PM67 °FLight rain. Mostly cloudy.20 mph47%29.85 "Hg10 mi
1:53 PM68 °FOvercast.13 mph45%29.85 "Hg10 mi
12:53 PM67 °FMore clouds than sun.15 mph47%29.85 "Hg10 mi
Weather by CustomWeather, © 2016

See weather overviewHow to use our weather pages